INTELSAT 805 (IS-805)

Last updated on Dec. 5, 2020, 6:14 a.m. UTC

1 25371U 98037A   20339.48191493 -.00000193  00000-0  00000-0 0  9995
2 25371   2.8583  86.3822 0012382 111.3159 346.4769  0.99475831 82265
UTC
Height (km)
Latitude
Longitude
Inclination
Orbital Period
UTC large
Height (km)
Speed (km/s)
/
Latitude / Longitude
Inclination (degrees)
Orbital Period (minutes)
Azimuth
Elevation
Range (km)
Doppler Factor
iOS Compass Heading
iOS Angle

Next 30 passes for location: Hong Kong

Rise time Rise Azimuth (degrees) Set time Set Azimuth (degrees) Duration Max altitude (degrees)

No matching passes for this satellites